Weather in Fomkino

Russia / Republic of Tatarstan     54°24′48″N   50°29′30″E
temp.,
°C
wind,
m/s
gust,
m/s
humid.,
%
clouds,
%
prec.,
mm/h
press.,
hPa
HPBL,
m
27 october, wed
wed2700:00+1sw51177100 0.0 1023320
03:000sw51179100 0.0 1022322
06:000sw51181100 0.0 1021302
09:00+3sw51171100 0.0 1021455
12:00+5sw61161100 0.0 1020634
15:00+6sw61356100 0.0 1018582
18:00+5sw71558100 0.0 1017469
21:00+4sw71556100 0.0 1016505
28 october, thu
thu2800:00+3sw715566 0.0 1014476
03:00+3wsw81457100 0.1 1013899
06:00+3wsw71491100 0.8 1013689
09:00+5wsw61282100 0.8 1014596
12:00+7wsw7107196 0.0 1014844
15:00+7wsw5967100 0.0 1014575
18:00+6sw4973100 0.0 1015267
21:00+5sw387986 0.0 1015209
29 october, fri
fri2900:00+5wsw2683100 0.0 1015244
03:00+5nw2692100 0.4 1016567
06:00+1nne7117788 0.4 1022582
09:00−1ne710590 0.4 1026591
12:00+1ne67440 0.0 1028776
15:00+1nne45420 0.0 1031753
18:00−2ene225474 0.0 103229
21:00−1sse1153100 0.0 103336
30 october, sat
sat3000:00−2ssw3557100 0.0 1033132
03:00−2sw3859100 0.0 1032249
06:00−1ssw5105885 0.0 1031323
09:00+2sw6135171 0.0 1030439
12:00+5wsw7125359 0.0 1029586
15:00+6wsw612678 0.0 1029492
18:00+4wsw4118574 0.0 1029260
21:00+3wsw4119068 0.0 1029235
31 october, sun
sun3100:00+3wsw4109274 0.0 1030225
03:00+3wsw499317 0.0 1030173
06:00+2wsw379318 0.0 1030121
09:00+5wsw48805 0.0 1031236
12:00+9wsw576037 0.0 1031426
15:00+8wsw49657 0.0 1030356
18:00+5sw410808 0.0 1030185
21:00+4wsw498033 0.0 1030154